CST,Max TemperatureF,Mean TemperatureF,Min TemperatureF,Max Dew PointF,MeanDew PointF,Min DewpointF,Max Humidity, Mean Humidity, Min Humidity, Max Sea Level PressureIn, Mean Sea Level PressureIn, Min Sea Level PressureIn, Max VisibilityMiles, Mean VisibilityMiles, Min VisibilityMiles, Max Wind SpeedMPH, Mean Wind SpeedMPH, Max Gust SpeedMPH,PrecipitationIn, CloudCover, Events, WindDirDegrees
2012-11-1,35,30,26,32,27,21,93,80,56,30.05,29.93,29.86,10,9,2,15,7,23,0.00,7,Rain-Snow,322
2012-11-2,32,26,19,21,20,18,100,76,60,30.20,30.13,30.06,10,9,2,9,3,,0.00,3,,23
2012-11-3,35,27,19,27,24,18,100,88,65,30.24,30.22,30.19,10,10,7,6,0,,0.00,2,,150
2012-11-4,33,24,14,27,21,12,100,83,64,30.25,30.23,30.20,10,10,10,6,1,,0.00,6,,117
2012-11-5,39,34,28,30,24,21,93,73,56,30.24,30.11,29.85,10,10,7,12,4,,0.00,7,,155
2012-11-6,35,34,32,34,33,30,100,95,87,29.90,29.75,29.67,10,5,2,9,5,,0.12,8,Rain-Snow,164
2012-11-7,35,32,30,36,34,30,100,97,93,30.03,29.99,29.90,10,6,0,7,1,,0.00,7,Fog-Rain,227
2012-11-8,44,38,33,37,34,28,100,84,66,30.08,29.93,29.81,10,10,5,14,7,21,0.00,6,Rain,244
2012-11-9,37,32,28,30,26,25,93,80,60,30.17,30.13,30.08,10,10,5,12,5,,0.00,7,Snow,43
2012-11-10,42,35,28,43,33,21,100,91,74,30.12,29.80,29.47,10,8,2,18,11,24,0.15,8,Rain-Snow-Thunderstorm,97
2012-11-11,48,36,23,48,32,16,100,90,74,29.70,29.57,29.40,10,8,1,17,9,25,0.06,8,Rain-Snow-Thunderstorm,243
2012-11-12,24,20,17,21,17,12,93,85,74,30.10,29.82,29.69,10,6,1,14,9,24,0.00,8,Snow,257
2012-11-13,32,26,19,21,18,16,93,76,55,30.23,30.20,30.11,10,10,10,13,7,17,0.00,6,,224
2012-11-14,39,32,26,28,26,21,86,75,61,30.22,30.15,30.06,10,10,10,8,3,,0.00,5,,170
2012-11-15,37,26,15,30,21,10,93,67,33,30.44,30.19,30.01,10,10,10,15,7,22,0.00,1,,270
2012-11-16,37,24,12,25,18,10,100,78,52,30.44,30.38,30.27,10,10,10,10,3,,0.00,1,,163
2012-11-17,48,39,30,37,32,27,86,69,57,30.27,30.18,30.14,10,10,10,14,8,21,0.00,2,,183
2012-11-18,48,42,37,37,33,30,81,67,50,30.17,30.09,30.04,10,10,10,13,9,21,0.00,4,Rain,165
2012-11-19,53,42,30,36,33,28,100,68,50,30.05,30.01,29.95,10,10,5,10,6,,0.00,3,Thunderstorm,199
2012-11-20,39,32,24,30,29,25,100,87,65,30.14,30.06,29.96,10,6,0,8,2,,0.00,3,Fog,218
2012-11-21,48,40,33,37,32,28,87,75,58,29.95,29.83,29.60,10,10,7,9,4,,0.00,0,,183
2012-11-22,48,36,24,39,34,21,100,84,66,29.73,29.58,29.50,10,7,1,17,8,31,0.24,4,Rain-Snow,260
2012-11-23,23,18,12,21,12,7,100,83,73,30.25,30.10,29.74,10,6,1,20,12,31,0.04,8,Snow,324
2012-11-24,19,8,-4,18,8,-8,100,86,68,30.24,30.00,29.72,10,8,1,10,3,,0.01,4,Snow,182
2012-11-25,19,12,6,18,13,1,100,87,73,30.07,29.83,29.71,10,7,0,15,7,22,0.00,7,Snow,290
2012-11-26,12,9,6,9,4,3,85,80,67,30.24,30.19,30.08,10,8,2,10,6,16,0.00,7,Snow,275
2012-11-27,24,15,6,19,13,1,93,84,73,30.14,30.04,29.97,10,7,1,14,8,21,0.00,6,Snow,253
2012-11-28,24,14,5,21,10,1,93,83,73,30.20,30.10,29.98,10,9,2,14,8,20,0.00,6,Snow,255
2012-11-29,24,18,12,19,11,7,93,84,79,30.26,30.18,30.06,10,10,7,9,5,,0.00,7,,39
2012-11-30,30,21,12,28,21,10,100,88,80,30.25,30.15,30.02,10,9,3,15,7,23,0.00,8,Snow,117